DW6706 Weather Reports


time (UTC)temp
C
wind
direction
speed
KPH
gust
KPH
rain 1hr
cm
rain 24hr
cm
rain mn
cm
humidity
%
barometer
mb
20260509234538 28 284 0.0 0.0 0.00 0.00 0.00 85 1007.3
20260509233538 28 284 0.0 0.0 0.00 0.00 0.00 85 1007.4
20260509232538 29 284 0.0 0.0 0.00 0.00 0.00 84 1007.4
20260509231538 29 284 0.0 0.0 0.00 0.00 0.00 83 1007.3
20260509230538 30 284 0.0 0.0 0.00 0.00 0.00 81 1007.0
20260509225538 30 284 0.0 0.0 0.00 0.00 0.00 79 1007.0
20260509224538 31 284 0.0 0.0 0.00 0.00 0.00 77 1007.0
20260509223538 31 284 0.0 0.0 0.00 0.00 0.00 76 1007.0
20260509222538 32 284 0.0 0.0 0.00 0.00 0.00 76 1007.1
20260509221538 32 284 0.0 0.0 0.00 0.00 0.00 73 1006.8
20260509220537 32 284 0.0 0.0 0.00 0.00 0.00 70 1006.9
20260509215537 32 284 0.0 0.0 0.00 0.00 0.00 68 1006.9
20260509214537 33 284 0.0 3.2 0.00 0.00 0.00 67 1006.9
20260509213537 33 284 0.0 1.6 0.00 0.00 0.00 69 1006.9
20260509212537 32 284 0.0 1.6 0.00 0.00 0.00 69 1006.8
20260509211537 32 284 0.0 1.6 0.00 0.00 0.00 70 1007.0
20260509210537 32 284 1.6 1.6 0.00 0.00 0.00 67 1007.1
20260509205537 32 284 0.0 8.0 0.00 0.00 0.00 66 1007.2
20260509204537 32 273 6.4 8.0 0.00 0.00 0.00 68 1007.4
20260509203537 32 298 0.0 6.4 0.00 0.00 0.00 70 1007.6
20260509202537 32 333 0.0 9.7 0.00 0.00 0.00 71 1007.7
20260509201537 32 5 1.6 6.4 0.00 0.00 0.00 72 1007.8
20260509200536 31 5 3.2 3.2 0.00 0.00 0.00 72 1007.9
20260509195537 31 290 0.0 3.2 0.00 0.00 0.00 73 1007.9
20260509194537 31 286 0.0 1.6 0.00 0.00 0.00 76 1008.1
20260509193537 31 286 0.0 6.4 0.00 0.00 0.00 73 1008.2
20260509191537 31 341 1.6 3.2 0.00 0.00 0.00 73 1008.4
20260509185536 30 348 1.6 8.0 0.00 0.00 0.00 74 1008.7
20260509184536 30 296 0.0 6.4 0.00 0.00 0.00 75 1008.8
20260509183536 30 344 0.0 1.6 0.00 0.00 0.00 78 1008.9
20260509182536 29 337 0.0 4.8 0.00 0.00 0.00 79 1009.0
20260509181536 29 290 1.6 6.4 0.00 0.00 0.00 77 1009.2
20260509180536 29 313 0.0 6.4 0.00 0.00 0.00 78 1009.4
20260509175536 29 325 0.0 3.2 0.00 0.00 0.00 79 1009.6
20260509173535 28 323 0.0 1.6 0.00 0.00 0.00 80 1009.6
20260509172536 28 323 0.0 4.8 0.00 0.00 0.00 80 1009.7
20260509171535 28 273 0.0 1.6 0.00 0.00 0.00 80 1009.5
20260509170535 27 273 0.0 4.8 0.00 0.00 0.00 83 1009.5
20260509165536 27 284 0.0 4.8 0.00 0.00 0.00 83 1009.3
20260509164535 27 284 0.0 3.2 0.00 0.00 0.00 86 1009.1
20260509163535 26 58 0.0 3.2 0.00 0.00 0.00 86 1009.4
20260509162535 26 75 0.0 6.4 0.00 0.00 0.00 87 1009.4
20260509161535 26 300 0.0 1.6 0.00 0.00 0.00 90 1009.7
20260509160535 25 300 0.0 0.0 0.00 0.00 0.00 90 1009.6
20260509155535 25 300 0.0 0.0 0.00 0.00 0.00 91 1009.9
20260509154535 25 300 0.0 0.0 0.00 0.00 0.00 92 1010.1
20260509153534 25 300 0.0 0.0 0.00 0.00 0.00 91 1010.2
20260509152534 25 300 0.0 0.0 0.00 0.00 0.00 92 1010.1
20260509151534 25 300 0.0 0.0 0.00 0.00 0.00 92 1010.0
20260509150534 25 300 0.0 0.0 0.00 0.00 0.00 93 1009.9
20260509145534 25 300 0.0 0.0 0.00 0.00 0.00 94 1009.8
20260509144534 24 300 0.0 3.2 0.00 0.00 0.00 94 1009.7
20260509143534 24 123 0.0 0.0 0.00 0.00 0.00 94 1009.6
20260509142535 24 123 0.0 0.0 0.00 0.00 0.00 95 1009.2
20260509141534 24 123 0.0 0.0 0.00 0.00 0.00 95 1009.3
20260509140534 24 123 0.0 0.0 0.00 0.00 0.00 95 1009.2
20260509135534 23 123 0.0 0.0 0.00 0.00 0.00 95 1009.4
20260509134534 23 123 0.0 0.0 0.00 0.00 0.00 95 1009.6
20260509133534 23 123 0.0 0.0 0.00 0.00 0.00 95 1009.7
20260509132534 23 123 0.0 0.0 0.00 0.00 0.00 95 1009.9
20260509130533 23 123 0.0 0.0 0.00 0.00 0.00 95 1010.0
20260509125533 23 123 0.0 0.0 0.00 0.00 0.00 95 1009.8
20260509124533 23 123 0.0 0.0 0.00 0.00 0.00 95 1009.8
20260509123533 23 123 0.0 0.0 0.00 0.00 0.00 94 1009.8
20260509122533 23 123 0.0 0.0 0.00 0.00 0.00 94 1009.6
20260509121533 23 123 0.0 0.0 0.00 0.00 0.00 94 1009.6
20260509113533 23 123 0.0 0.0 0.00 0.00 0.00 94 1009.4
20260509112533 23 123 0.0 0.0 0.00 0.00 0.00 94 1009.5
20260509111533 23 123 0.0 0.0 0.00 0.00 0.00 94 1009.4
20260509110533 23 123 0.0 0.0 0.00 0.00 0.00 94 1009.6
20260509105533 23 123 0.0 0.0 0.00 0.00 0.00 94 1009.7
20260509104532 23 123 0.0 0.0 0.00 0.00 0.00 94 1009.4
20260509103533 23 123 0.0 0.0 0.00 0.00 0.00 94 1009.5
20260509102532 23 123 0.0 0.0 0.00 0.00 0.00 94 1009.4
20260509101532 23 123 0.0 0.0 0.00 0.00 0.00 94 1009.0
20260509100532 23 123 0.0 0.0 0.00 0.00 0.00 94 1008.9
20260509095532 23 123 0.0 0.0 0.00 0.00 0.00 94 1008.7
20260509094532 23 123 0.0 0.0 0.00 0.00 0.00 94 1008.8
20260509093532 23 123 0.0 0.0 0.00 0.00 0.00 94 1008.7
20260509092532 23 123 0.0 0.0 0.00 0.00 0.00 94 1008.8
20260509090532 23 123 0.0 0.0 0.00 0.00 0.00 94 1009.0
20260509085532 23 123 0.0 0.0 0.00 0.00 0.00 94 1009.1
20260509084532 23 123 0.0 0.0 0.00 0.00 0.00 94 1009.3
20260509083532 23 123 0.0 0.0 0.00 0.00 0.00 94 1009.4
20260509082532 23 123 0.0 0.0 0.00 0.00 0.00 94 1009.4
20260509081532 23 123 0.0 0.0 0.00 0.00 0.00 94 1009.4
20260509080532 23 123 0.0 0.0 0.00 0.00 0.00 94 1009.1
20260509075532 23 123 0.0 0.0 0.00 0.00 0.00 94 1009.0
20260509074532 23 123 0.0 0.0 0.00 0.00 0.00 94 1008.9
20260509073532 23 123 0.0 0.0 0.00 0.00 0.00 94 1009.1
20260509072531 23 123 0.0 0.0 0.00 0.00 0.00 94 1009.0
20260509071531 23 123 0.0 0.0 0.00 0.00 0.00 94 1009.0
20260509070531 23 123 0.0 0.0 0.00 0.00 0.00 94 1009.0
20260509065531 23 123 0.0 0.0 0.00 0.00 0.00 94 1009.0
20260509064531 23 123 0.0 0.0 0.00 0.00 0.00 94 1009.1
20260509063531 23 123 0.0 0.0 0.00 0.00 0.00 93 1009.2
20260509062531 23 123 0.0 0.0 0.00 0.00 0.00 93 1009.2
20260509061531 23 123 0.0 0.0 0.00 0.00 0.00 94 1009.3
20260509055531 23 123 0.0 0.0 0.00 0.00 0.00 94 1009.6
20260509054531 23 123 0.0 0.0 0.00 0.00 0.00 94 1009.7
20260509053530 23 123 0.0 0.0 0.00 0.00 0.00 93 1009.7
20260509052530 23 123 0.0 0.0 0.00 0.00 0.00 94 1009.7
20260509051530 22 123 0.0 0.0 0.00 0.00 0.00 93 1009.6
20260509050530 22 123 0.0 0.0 0.00 0.00 0.00 93 1009.6
20260509045530 22 123 0.0 0.0 0.00 0.00 0.00 93 1009.7
20260509044530 22 123 0.0 0.0 0.00 0.00 0.00 93 1009.7
20260509043530 22 123 0.0 0.0 0.00 0.00 0.00 93 1009.7
20260509042530 22 123 0.0 0.0 0.00 0.00 0.00 93 1009.7
20260509041530 22 123 0.0 0.0 0.00 0.00 0.00 93 1009.7
20260509040530 22 123 0.0 0.0 0.00 0.00 0.00 93 1009.6
20260509035530 22 123 0.0 0.0 0.00 0.00 0.00 93 1009.6
20260509033530 22 123 0.0 0.0 0.00 0.00 0.00 92 1009.1
20260509032529 22 123 0.0 0.0 0.00 0.00 0.00 92 1009.1
20260509031529 23 123 0.0 0.0 0.00 0.00 0.00 92 1009.4
20260509025530 23 123 0.0 1.6 0.00 0.00 0.00 92 1009.2
20260509022529 23 123 0.0 1.6 0.00 0.00 0.00 92 1008.7
20260509021529 23 123 0.0 1.6 0.00 0.00 0.00 91 1008.5
20260509020529 23 123 0.0 0.0 0.00 0.00 0.00 91 1008.5
20260509015529 23 123 0.0 3.2 0.00 0.00 0.00 91 1008.5
20260509014529 23 234 0.0 0.0 0.00 0.00 0.00 91 1008.4
20260509011528 23 213 0.0 1.6 0.00 0.00 0.00 90 1008.5
20260509010529 23 213 0.0 1.6 0.00 0.00 0.00 89 1008.4
20260509005529 23 213 0.0 1.6 0.00 0.00 0.00 89 1008.3
20260509004529 24 213 0.0 1.6 0.00 0.00 0.00 89 1008.1
20260509003528 24 174 0.0 0.0 0.00 0.00 0.00 88 1008.0
20260509002528 24 174 0.0 0.0 0.00 0.00 0.00 88 1008.0
20260509000528 24 173 0.0 1.6 0.00 0.00 0.00 87 1008.4
20260508235528 25 173 0.0 1.6 0.00 0.00 0.00 87 1008.5